Simultaneous Nadir Overpasses (SNOs) Predictions

Prediction of SNOs between GOES-16 and METOP-B Satellite Orbit:

Table of predicted SNOs for the next 14.0 days since TLE Epoch: 1/18/2025
Index Date Time (GOES-16) GOES-16 Lat,Lon METOP-B Lat,Lon Distance(km) Time Diff (sec)
1 01/18/2025 14:17:48 0.00, -75.20 0.23, -76.33 128.25 80
2 01/19/2025 13:57:13 0.00, -75.22 -0.88, -71.37 439.59 80
3 01/21/2025 02:19:01 -0.00, -75.21 -0.19, -76.00 90.96 80
4 01/22/2025 01:55:46 -0.00, -75.23 0.93, -71.04 477.03 80
5 01/23/2025 14:14:46 0.01, -75.30 0.06, -75.66 40.23 80
6 01/26/2025 02:15:57 -0.01, -75.31 -0.04, -75.32 3.26 80
7 01/28/2025 14:11:42 0.01, -75.41 -0.11, -74.98 49.87 80
8 01/30/2025 02:33:29 -0.01, -75.41 -0.97, -79.61 479.03 80
9 01/31/2025 02:10:14 -0.01, -75.43 0.17, -74.65 89.75 80
